Frankfort, MI

12:12 AM EDT on September 30, 2016 (GMT -0400)
Frankfort

Weather History for KFKS - October, 2011

Change the Weather History Date:

Saturday, October 22, 2011

  Actual Average (KTVC) Record (KTVC)
Temperature  
Mean Temperature 42 °F 46 °F  
Max Temperature 53 °F 55 °F 83 °F (1947)
Min Temperature 30 °F 37 °F 22 °F (2008)
Degree Days  
Heating Degree Days 24 19  
Month to date heating degree days 340  
Since 1 July heating degree days 602  
Cooling Degree Days 0 0  
Month to date cooling degree days 0  
Year to date cooling degree days 407  
Moisture  
Dew Point 35 °F    
Average Humidity 81    
Maximum Humidity 100    
Minimum Humidity 51    
Precipitation  
Precipitation 0.00 in 0.10 in 1.00 in (1972)
Month to date precipitation 2.29  
Year to date precipitation 26.93  
Sea Level Pressure  
Sea Level Pressure 30.01 in    
Wind  
Wind Speed 2 mph (SW)    
Max Wind Speed 10 mph    
Max Gust Speed -    
Visibility 9 miles    
Events      
T = Trace of Precipitation, MM = Missing Value Source: NWS Daily Summary

Daily Weather History Graph

Daily Weather History Graph

Search for Another Location

Airport or City:

Trip Planner

Search our weather history database for the weather conditions in past years. The results will help you decide how hot, cold, wet, or windy it might be!

Date:

Astronomy

Oct. 22, 2011 Rise Set
Actual Time 8:08 AM EDT 6:49 PM EDT
Civil Twilight 7:39 AM EDT 7:18 PM EDT
Nautical Twilight 7:05 AM EDT 7:52 PM EDT
Astronomical Twilight 6:31 AM EDT 8:26 PM EDT
Moon 2:54 AM EDT (10/22) 4:16 PM EDT (10/22)
Length of Visible Light 11h 39m
Length of Day
10h 40m
Waning Crescent, 24% of the Moon is Illuminated
Oct 22
Waning Crescent
Oct 26
New
Nov 2
First Quarter
Nov 10
Full
Nov 18
Last Quarter

Hourly Weather History & Observations

Time (EDT) Temp. Dew Point Humidity Pressure Visibility Wind Dir Wind Speed Gust Speed Precip Events Conditions
12:14 AM 33.8 °F 32.0 °F 93% 30.03 in 10.0 mi Calm Calm - N/A   Clear
12:34 AM 32.0 °F 30.2 °F 93% 30.03 in 10.0 mi Calm Calm - N/A   Clear
12:54 AM 32.0 °F 30.2 °F 93% 30.02 in 10.0 mi Calm Calm - N/A   Clear
1:14 AM 32.0 °F 30.2 °F 93% 30.02 in 10.0 mi Calm Calm - N/A   Clear
1:34 AM 32.0 °F 30.2 °F 93% 30.02 in 10.0 mi Calm Calm - N/A   Clear
1:55 AM 32.0 °F 30.2 °F 93% 30.02 in 10.0 mi Calm Calm - N/A   Clear
2:15 AM 32.0 °F 28.4 °F 87% 30.02 in 10.0 mi Calm Calm - N/A   Clear
2:35 AM 32.0 °F 28.4 °F 87% 30.01 in 10.0 mi Calm Calm - N/A   Clear
3:15 AM 30.2 °F 28.4 °F 93% 30.02 in 10.0 mi Calm Calm - N/A   Clear
3:35 AM 30.2 °F 28.4 °F 93% 30.01 in 10.0 mi Calm Calm - N/A   Clear
3:55 AM 32.0 °F 30.2 °F 93% 30.01 in 5.0 mi Calm Calm - N/A   Clear
4:16 AM 30.2 °F 28.4 °F 93% 30.01 in 10.0 mi Calm Calm - N/A   Clear
5:11 AM 32.0 °F 28.4 °F 87% 30.00 in 7.0 mi Calm Calm - N/A   Clear
5:31 AM 32.0 °F 28.4 °F 87% 30.00 in 10.0 mi Calm Calm - N/A   Clear
5:51 AM 32.0 °F 30.2 °F 93% 30.00 in 10.0 mi Calm Calm - N/A   Clear
6:11 AM 32.0 °F 30.2 °F 93% 30.00 in 5.0 mi Calm Calm - N/A   Clear
6:32 AM 32.0 °F 30.2 °F 93% 30.00 in 7.0 mi Calm Calm - N/A   Clear
6:52 AM 33.8 °F 32.0 °F 93% 30.00 in 7.0 mi Calm Calm - N/A   Clear
7:12 AM 33.8 °F 32.0 °F 93% 30.01 in 7.0 mi Calm Calm - N/A   Clear
7:32 AM 32.0 °F 32.0 °F 100% 30.01 in 5.0 mi Calm Calm - N/A   Clear
8:12 AM 32.0 °F 32.0 °F 100% 30.01 in 4.0 mi Calm Calm - N/A   Clear
8:32 AM 32.0 °F 30.2 °F 93% 30.01 in 4.0 mi Calm Calm - N/A   Clear
8:52 AM 32.0 °F 30.2 °F 93% 30.02 in 4.0 mi Calm Calm - N/A   Clear
9:13 AM 32.0 °F 30.2 °F 93% 30.02 in 5.0 mi Calm Calm - N/A   Clear
9:33 AM 35.6 °F 33.8 °F 93% 30.02 in 5.0 mi Calm Calm - N/A   Clear
9:53 AM 41.0 °F 37.4 °F 87% 30.02 in 7.0 mi Calm Calm - N/A   Clear
10:13 AM 44.6 °F 41.0 °F 87% 30.02 in 10.0 mi Calm Calm - N/A   Clear
10:33 AM 46.4 °F 39.2 °F 76% 30.02 in 10.0 mi Calm Calm - N/A   Clear
11:13 AM 51.8 °F 37.4 °F 58% 30.02 in 10.0 mi SSE 3.5 mph - N/A   Clear
11:34 AM 51.8 °F 35.6 °F 54% 30.01 in 10.0 mi SW 6.9 mph - N/A   Clear
12:14 PM 51.8 °F 37.4 °F 58% 30.01 in 10.0 mi SW 9.2 mph - N/A   Clear
12:34 PM 51.8 °F 41.0 °F 67% 30.02 in 10.0 mi SW 8.1 mph - N/A   Clear
12:54 PM 51.8 °F 41.0 °F 67% 30.02 in 10.0 mi WSW 6.9 mph - N/A   Clear
1:15 PM 51.8 °F 41.0 °F 67% 30.01 in 10.0 mi South 10.4 mph - N/A   Clear
1:35 PM 51.8 °F 41.0 °F 67% 30.01 in 10.0 mi SSW 9.2 mph - N/A   Clear
1:55 PM 51.8 °F 41.0 °F 67% 30.01 in 10.0 mi SW 8.1 mph - N/A   Clear
2:15 PM 51.8 °F 41.0 °F 67% 30.01 in 10.0 mi SSW 8.1 mph - N/A   Clear
2:35 PM 51.8 °F 41.0 °F 67% 30.00 in 10.0 mi WSW 10.4 mph - N/A   Clear
2:55 PM 53.6 °F 37.4 °F 54% 30.00 in 10.0 mi WSW 6.9 mph - N/A   Clear
3:11 PM 53.6 °F 35.6 °F 51% 30.00 in 10.0 mi SW 6.9 mph - N/A   Clear
3:31 PM 53.6 °F 39.2 °F 58% 30.00 in 10.0 mi West 9.2 mph - N/A   Clear
3:51 PM 51.8 °F 39.2 °F 62% 30.00 in 10.0 mi WSW 9.2 mph - N/A   Clear
4:11 PM 51.8 °F 41.0 °F 67% 30.00 in 10.0 mi SW 5.8 mph - N/A   Clear
4:31 PM 51.8 °F 41.0 °F 67% 30.00 in 10.0 mi WSW 4.6 mph - N/A   Clear
4:51 PM 51.8 °F 41.0 °F 67% 30.01 in 10.0 mi WSW 5.8 mph - N/A   Clear
5:12 PM 50.0 °F 39.2 °F 66% 30.01 in 10.0 mi SW 4.6 mph - N/A   Clear
5:32 PM 50.0 °F 39.2 °F 66% 30.01 in 10.0 mi SW 3.5 mph - N/A   Clear
5:52 PM 50.0 °F 39.2 °F 66% 30.01 in 10.0 mi West 3.5 mph - N/A   Clear
6:12 PM 50.0 °F 39.2 °F 66% 30.01 in 10.0 mi West 3.5 mph - N/A   Clear
6:32 PM 46.4 °F 41.0 °F 81% 30.01 in 10.0 mi Calm Calm - N/A   Clear
6:53 PM 44.6 °F 37.4 °F 76% 30.01 in 10.0 mi Calm Calm - N/A   Clear
7:13 PM 41.0 °F 37.4 °F 87% 30.01 in 10.0 mi Calm Calm - N/A   Clear
7:33 PM 41.0 °F 37.4 °F 87% 30.02 in 10.0 mi Calm Calm - N/A   Clear
7:53 PM 41.0 °F 37.4 °F 87% 30.02 in 7.0 mi Calm Calm - N/A   Clear
8:13 PM 37.4 °F 35.6 °F 93% 30.02 in 7.0 mi Calm Calm - N/A   Clear
8:34 PM 37.4 °F 35.6 °F 93% 30.02 in 5.0 mi Calm Calm - N/A   Clear
8:54 PM 37.4 °F 35.6 °F 93% 30.02 in 5.0 mi Calm Calm - N/A   Clear
9:14 PM 37.4 °F 35.6 °F 93% 30.02 in 5.0 mi Calm Calm - N/A   Clear
9:34 PM 35.6 °F 32.0 °F 87% 30.03 in 10.0 mi Calm Calm - N/A   Clear
9:54 PM 35.6 °F 32.0 °F 87% 30.03 in 10.0 mi Calm Calm - N/A   Clear
10:14 PM 35.6 °F 32.0 °F 87% 30.04 in 10.0 mi Calm Calm - N/A   Clear
10:35 PM 33.8 °F 32.0 °F 93% 30.03 in 5.0 mi Calm Calm - N/A   Clear
10:55 PM 33.8 °F 32.0 °F 93% 30.03 in 10.0 mi Calm Calm - N/A   Clear
11:15 PM 33.8 °F 32.0 °F 93% 30.03 in 5.0 mi Calm Calm - N/A   Clear
11:35 PM 33.8 °F 32.0 °F 93% 30.03 in 7.0 mi Calm Calm - N/A   Scattered Clouds
11:55 PM 33.8 °F 30.2 °F 87% 30.02 in 7.0 mi Calm Calm - N/A   Scattered Clouds